Location: Marsån
(66.4167°N, 22.2833°E)
Time: 10:58:02
(UTC+00:00)

Okean 1 - Pass Details

Date: 24 February 2024
Orbit: 508 x 534 km, 82.5° (Epoch: 15 April)

Event Time Altitude Azimuth Distance (km) Brightness Sun altitude
Rises 16:29:14 0° 338° (NNW) 2,719 7.1 -7.2°
Reaches altitude 10° 16:31:44 10° 353° (N) 1,822 6.0 -7.4°
Maximum altitude 16:35:02 24° 48° (NE) 1,158 4.5 -7.8°
Drops below altitude 10° 16:38:18 10° 103° (ESE) 1,806 5.3 -8.1°
Enters shadow 16:38:30 - 105° (ESE) 1,872 5.4 -8.1°
